Location: Casteau
(50.5142°N, 4.0161°E)
Time: 04:12:10
(UTC+00:00)

Meteor 2-5 Rocket - Pass Details

Date: 18 September 2020
Orbit: 833 x 912 km, 81.2° (Epoch: 29 October)

Event Time Altitude Azimuth Distance (km) Brightness Sun altitude
Rises 20:20:12 0° 346° (NNW) 3,413 7.6 -23.2°
Reaches altitude 10° 20:22:36 10° 344° (NNW) 2,482 6.8 -23.5°
Maximum altitude 20:28:13 72° 261° (W) 904 3.9 -24.3°
Enters shadow 20:30:22 39° 188° (S) 1,274 4.4 -24.5°
